星链-32020 (STARLINK-32020)

导读

STARLINK-32020是美国太空探索技术公司SpaceX星链卫星互联网项目的一员,于2024年7月3日发射升空。星链计划旨在通过构建低轨卫星星座,为全球提供覆盖广泛、高速稳定的互联网接入服务,该卫星入轨后,将和其他星链卫星协同,进一步完善星座网络布局,推进全球网络覆盖目标的实现。

基本信息
目录编号:
60201
目录名称:
STARLINK-32020
国际标识:
2024-124U
轨道中心:
EARTH
卫星名称:
星链-32020 (STARLINK-32020)
卫星全名:
星链-32020 (STARLINK-32020)
卫星状态:
在轨 (已飞行793 天)
发射日期:
2024-07-03 UTC
国别 :
美国 (US)
星等 :
--
轨道信息
数据来源 国际轨道数据 AOE轨道数据
星历时间 2026-09-03T22:35:48+0800
14小时前
查看轨道信息
2026-08-29T22:00:00+0800
5天前
查看轨道信息
半长轴 6848.877km 6848.825km
偏心率 0.0001341 0.0001451
轨道倾角 53.160° 53.160°
近地点辐角 88.301° 65.492°
升交点赤经 214.815° 238.206°
平近点角 271.814° 291.492°
近地点 469.821km 469.694km
远地点 471.659km 471.682km
周期 94.013分钟 94.012分钟
每日圈数 15.317003 15.317175
详细信息
卫星平台:
Starlink v2.0 mini
运营商:
太空探索技术公司
运营商所在国:
美国
制造商(研发单位):
太空探索技术公司
制造商所在国:
美国
使用方式:
暂无
卫星简介
星链(Starlink)计划是由太空探索技术公司(SpaceX)提出的一个巨型低轨卫星互联网星座项目,计划在2019年至2024年间在太空搭建由约1.2万颗卫星组成的“星链”网络,其中1584颗将部署在地球上空550千米处的近地轨道,并从2020年开始工作。该卫星仍在工作。
2D轨道图
3D轨道图
轨道高度分析图
轨道倾角分析图
轨道综合分析图
查看轨道综合分析图
交会数据列表
事件ID 空间交会对象 最接近时刻(TCA) 交会距离 交会风险概率(CRP) 交会风险指数(CRI) 操作
CDM_260906-024402-058006-020121
HST (20580)
2026-09-06T
02:44:26+0000
1.010 km
极远距离
1.193089E-5 中风险 0.57
CDM_260903-054706-020106-830422
2026-09-03T
05:47:38+0000
2.940 km
极远距离
1.355715E-6 低风险 0.38